[[{"header":{"parameterUnit":"m.s-1","parameterCategory":1,"la1":30.2992,"la2":30.254,"lo1":-89.0895,"lo2":-89.0443,"dy":0.0025,"dx":0.0025,"nx":19,"ny":19,"refTime":"2026-04-17T09:00:00:Z","depth":0,"parameterNumber":2,"parameterNumberName":"U-component_of_WINDS"},"data":[0,0,0,1.1314,1.1313,1.127,1.127,1.123,1.123,0,0,0,0,0,0,0,0,0,0,0,1.1337,1.1337,1.1314,1.1313,1.127,1.127,1.123,1.123,0,0,0,0,0,0,0,0,0,0,0,1.1337,1.1337,1.1337,1.1313,1.127,1.127,1.123,1.1257,0,0,0,0,0,0,0,0,0,0,1.1296,1.1327,1.1337,1.1337,1.1313,1.127,1.127,1.1258,1.1255,1.1256,0,1.1261,0,1.1245,1.1228,1.1228,0,0,0,1.1306,1.133,1.1309,1.1337,1.1313,1.127,1.1287,1.1256,1.1253,1.1253,1.126,1.1258,1.1244,1.1228,1.1228,1.1259,1.1259,0,0,1.1308,1.1334,1.1311,1.1307,1.1316,1.1289,1.1286,1.1254,1.1264,1.126,1.1257,1.1243,1.1228,1.1228,1.1258,1.1259,0,0,0,1.132,1.1336,1.1316,1.131,1.1301,1.1288,1.1285,1.1265,1.1256,1.1256,1.1243,1.1228,1.1228,1.1257,1.1258,1.1308,0,0,0,1.1321,1.1343,1.1317,1.1333,1.1302,1.1282,1.1296,1.1258,1.1254,1.1243,1.1228,1.1227,1.1257,1.1258,1.1305,1.1326,0,0,0,1.1336,1.1345,1.1342,1.1335,1.1317,1.1282,1.1271,1.1257,1.1246,1.1228,1.1227,1.1257,1.1258,1.1303,1.1323,1.1341,0,0,0,1.136,1.1388,1.1343,1.1369,1.1318,1.1314,1.1271,1.1267,1.1258,1.1228,1.1257,1.1258,1.1302,1.132,1.1338,1.136,1.1372,0,0,1.141,1.1395,1.1408,1.1367,1.1377,1.1318,1.1335,1.1302,1.1276,1.1266,1.1266,1.1306,1.1322,1.134,1.1431,1.1441,0,0,0,1.1433,1.1442,1.1439,1.1431,1.1406,1.1385,1.1346,1.1333,1.1323,1.1276,1.1317,1.1326,1.1335,1.1344,1.1353,1.1358,1.1264,1.1264,1.1264,1.1541,1.1506,1.1524,1.1484,1.1476,1.1435,1.1425,1.14,1.1368,1.1378,1.1375,1.1434,1.1446,1.1451,1.1458,1.1384,1.1384,1.1384,1.1384,1.161,1.1617,1.1572,1.1573,1.1535,1.1536,1.1496,1.1473,1.1467,1.1434,1.1441,1.1407,1.1463,1.1466,1.1388,1.1387,1.1387,1.1386,1.1386,1.1677,1.1674,1.1657,1.164,1.1631,1.1588,1.1584,1.155,1.1518,1.1525,1.1516,1.1515,1.1508,1.1523,1.1523,1.1523,1.1524,1.1524,1.1524,1.1752,1.1731,1.1732,1.1706,1.1695,1.1677,1.1634,1.1622,1.16,1.1575,1.1575,1.154,1.1476,1.1459,1.1527,1.1526,1.1526,1.1526,1.1525,1.1833,1.1808,1.181,1.1799,1.1764,1.1756,1.1712,1.1691,1.1676,1.1674,1.1638,1.1596,1.1578,1.1571,1.1558,1.1646,1.1646,1.1646,1.1646,1.1888,1.1875,1.1868,1.1852,1.1833,1.1793,1.1793,1.176,1.1721,1.1709,1.1691,1.167,1.1665,1.165,1.1642,1.1628,1.1733,1.1733,1.1733,1.1935,1.1918,1.1926,1.1888,1.1858,1.1832,1.1831,1.1814,1.1765,1.1736,1.1698,1.1695,1.1661,1.1652,1.1622,1.1609,1.1584,0,0]},{"header":{"parameterUnit":"m.s-1","parameterCategory":1,"la1":30.2992,"la2":30.254,"lo1":-89.0895,"lo2":-89.0443,"dy":0.0025,"dx":0.0025,"nx":19,"ny":19,"refTime":"2026-04-17T09:00:00:Z","depth":0,"parameterNumber":3,"parameterNumberName":"V-component_of_WINDS"},"data":[0,0,0,4.7808,4.7809,4.7853,4.7854,4.7928,4.7929,0,0,0,0,0,0,0,0,0,0,0,4.7807,4.7808,4.7808,4.7809,4.7853,4.7854,4.7928,4.7929,0,0,0,0,0,0,0,0,0,0,0,4.7807,4.7808,4.7809,4.7809,4.7853,4.7854,4.7928,4.7888,0,0,0,0,0,0,0,0,0,0,4.7841,4.7853,4.7808,4.7809,4.781,4.7853,4.7854,4.7885,4.789,4.7916,0,4.7944,0,4.7938,4.7935,4.7936,0,0,0,4.78,4.7849,4.785,4.7809,4.781,4.7853,4.7831,4.7888,4.7893,4.7923,4.7945,4.7947,4.7939,4.7936,4.7936,4.8122,4.8124,0,0,4.7797,4.7821,4.7847,4.7854,4.785,4.7829,4.7832,4.7891,4.7916,4.7945,4.7949,4.7941,4.7937,4.7937,4.8121,4.8123,0,0,0,4.7797,4.782,4.7819,4.7852,4.7859,4.7831,4.7834,4.7913,4.7911,4.7949,4.7941,4.7937,4.7938,4.812,4.8122,4.8211,0,0,0,4.7795,4.782,4.7819,4.7834,4.7858,4.7887,4.7856,4.7907,4.7913,4.7941,4.7937,4.7939,4.8118,4.8121,4.8205,4.8249,0,0,0,4.78,4.782,4.7831,4.7835,4.7855,4.7885,4.7886,4.7908,4.7909,4.7936,4.7939,4.8117,4.812,4.82,4.8241,4.8305,0,0,0,4.7812,4.7909,4.7833,4.7938,4.7855,4.7941,4.7885,4.7948,4.7982,4.7938,4.8118,4.8122,4.8199,4.8236,4.83,4.8364,4.8393,0,0,4.7948,4.7926,4.7986,4.7919,4.8025,4.7932,4.805,4.8058,4.8037,4.8095,4.8099,4.8207,4.824,4.8304,4.8547,4.8571,0,0,0,4.8037,4.8081,4.8103,4.8138,4.8146,4.8157,4.8144,4.8147,4.8195,4.8072,4.8247,4.8266,4.8303,4.8332,4.8352,4.8382,4.8136,4.8136,4.8136,4.8264,4.8234,4.8331,4.8306,4.834,4.8325,4.8349,4.835,4.8309,4.8351,4.8368,4.8519,4.8555,4.8569,4.8601,4.8399,4.84,4.84,4.84,4.846,4.8517,4.8461,4.8535,4.8502,4.8563,4.8552,4.8521,4.8573,4.8504,4.8535,4.8462,4.8596,4.8622,4.8406,4.8405,4.8405,4.8404,4.8403,4.8606,4.8627,4.863,4.8676,4.8714,4.8685,4.8738,4.8705,4.8675,4.8705,4.872,4.8718,4.8712,4.8714,4.8715,4.8716,4.8716,4.8716,4.8717,4.8755,4.8755,4.8804,4.8822,4.8839,4.8858,4.8845,4.886,4.887,4.8842,4.8842,4.8797,4.8615,4.857,4.8725,4.8723,4.8722,4.8721,4.8721,4.8966,4.8913,4.8989,4.9006,4.9024,4.9065,4.9023,4.9058,4.9066,4.9093,4.9041,4.8912,4.8888,4.8872,4.8834,4.9048,4.9048,4.9048,4.9048,4.9088,4.9073,4.9143,4.9173,4.9199,4.9169,4.9254,4.9245,4.9226,4.9229,4.9194,4.9141,4.9126,4.911,4.9089,4.9054,4.9318,4.9319,4.9319,4.9216,4.9201,4.9281,4.9263,4.9274,4.9285,4.9364,4.94,4.9368,4.9329,4.9231,4.922,4.9135,4.9109,4.9068,4.9035,4.897,0,0]}]]